Regional Weather Roundup
Issued by NWS

Home | Current Version | Previous Version | Graphics & Text | Print | Product List | Glossary On
Versions: 1 2 3 4 5 6 7 8 9 10 11 12 13 14 15 16 17 18 19 20 21 22 23 24 25 26 27 28 29 30 31 32 33 34 35 36 37 38 39 40 41 42 43 44 45 46 47 48 49 50
000
ASUS43 KDMX 200107
RWRIA

WEATHER ROUNDUP FOR IOWA
NATIONAL WEATHER SERVICE DES MOINES IA
800 PM CDT SUN OCT 19 2014

NOTE: "FAIR" INDICATES FEW OR NO CLOUDS BELOW 12,000 FEET WITH NO
SIGNIFICANT WEATHER AND/OR OBSTRUCTIONS TO VISIBILITY.

* - THESE STATIONS ARE NOT NWS STATIONS...THUS NOT UNDER NWS
QUALITY CONTROL.  THEY ALSO DO NOT REPORT WEATHER SUCH
AS PRECIPITATION OR FOG.

IAZ001>003-012>014-020>022-031>034-043>046-200200-
   NORTHWEST IOWA

CITY           SKY/WX    TMP DP  RH WIND       PRES   REMARKS
CARROLL *      CLEAR     57  48  72 SW6       29.91S
CHEROKEE *     CLEAR     54  46  76 CALM      29.91R
DENISON *      CLEAR     59  48  67 CALM      29.91R
LE MARS *      CLEAR     52  45  76 CALM      29.91S
ORANGE CITY *  CLEAR     61  45  55 CALM      29.91S
SHELDON *      CLEAR     54  43  66 NW7       29.90R
SIOUX CITY     CLEAR     55  45  68 SW3       29.92R
SPENCER        CLEAR     53  44  71 W9        29.89R
STORM LAKE *   CLEAR     59  46  63 W8        29.92R
$$

IAZ055>058-069>071-079>083-090>094-200200-
   SOUTHWEST IOWA

CITY           SKY/WX    TMP DP  RH WIND       PRES   REMARKS
ATLANTIC *     CLEAR     52  46  82 SW6       29.93S
AUDUBON *      CLEAR     57  45  62 SW5       29.94S
CLARINDA *     CLEAR     54  46  76 S5        29.97F
COUNCIL BLFS * CLEAR     63  48  59 SW8       29.93S
CRESTON *      CLEAR     55  46  71 SW9       29.96S
HARLAN  *      CLEAR     59  48  67 CALM      29.97R
LAMONI         CLEAR     55  46  71 SW8       29.96F
RED OAK *      CLEAR     55  46  71 S3        29.95S
SHENANDOAH *   CLEAR     57  46  67 SW6       29.96F
$$

IAZ047>049-059>061-072>074-084-200200-
   CENTRAL IOWA

CITY           SKY/WX    TMP DP  RH WIND       PRES   REMARKS
AMES           CLEAR     54  45  71 SW8       29.91S
ANKENY *       CLEAR     59  48  67 S7        29.92S
CHARITON *     CLEAR     55  46  71 SW7       29.96R
DES MOINES     CLEAR     60  47  61 SW10      29.93F
GRINNELL*      CLEAR     55  45  67 SW7       29.93S
KNOXVILLE *    CLEAR     55  45  67 S9        29.92F
MARSHALLTOWN   CLEAR     57  46  66 SW9       29.90S
PELLA *        CLEAR     57  45  62 SW6       29.95F
PERRY *          N/A     55  46  71 SW7       29.92S
$$

IAZ004>006-015-016-023>025-035-036-200200-
   NORTH CENTRAL IOWA

CITY           SKY/WX    TMP DP  RH WIND       PRES   REMARKS
ALGONA *       CLEAR     57  46  67 W9        29.88R
CLARION *      CLEAR     54  46  76 S8        29.88S
ESTHERVILLE    CLEAR     59  45  59 W7        29.88R
FORT DODGE *   CLEAR     54  45  71 SW3       29.90S
MASON CITY     CLEAR     58  47  66 SW10      29.87S
FOREST CITY *  CLEAR     52  45  76 SW3       29.86S
IOWA FALLS *     N/A     54  45  71 S6        29.91R
$$

IAZ007>011-017>019-026>030-037>042-050>054-066-200200-
   NORTHEAST IOWA

CITY           SKY/WX    TMP DP  RH WIND       PRES   REMARKS
CEDAR RAPIDS   CLEAR     53  44  71 SW8       29.92S
CHARLES CITY * CLEAR     55  45  67 SW8       29.87S
CLINTON *      CLEAR     54  43  66 SW8       29.96S
DECORAH *      PTCLDY    55  46  71 VRB7      29.85S
DUBUQUE        PTCLDY    52  43  71 SW10      29.91S
MONTICELLO *   CLEAR     52  45  76 S6        29.91S
OELWEIN *      CLEAR     54  46  76 SW9       29.89S
WATERLOO       CLEAR     56  46  69 SW8       29.89S
$$

IAZ064-065-067-068-078-200200-
   EAST CENTRAL IOWA

CITY           SKY/WX    TMP DP  RH WIND       PRES   REMARKS
DAVENPORT      CLEAR     56  42  59 S13       29.94F
IOWA CITY      CLEAR     54  44  69 S5        29.94S
MT. PLEASANT * PTCLDY    55  41  58 S8        29.95F
MUSCATINE *    PTCLDY    54  43  66 S6        29.95S
QUAD CITIES    PTCLDY    56  42  59 SW7       29.93F
$$

IAZ062-063-075>077-085>089-095>099-200200-
   SOUTHEAST IOWA

CITY           SKY/WX    TMP DP  RH WIND       PRES   REMARKS
BURLINGTON     MOCLDY    57  45  64 SW12      29.96F
FAIRFIELD *    CLEAR     55  41  58 SW8       29.95S
FORT MADISON * PTCLDY    59  46  63 S8        29.98F
KEOKUK *       CLOUDY    57  45  62 S8        29.98F
OSKALOOSA *      N/A     52  43  71 SW8       29.96R
CENTERVILLE *  CLEAR     54  46  76 S6        29.98S
OTTUMWA        CLEAR     56  43  61 SW6       29.95S
WASHINGTON *   CLEAR     57  45  62 SW7       29.95R
$$

ABBREVIATIONS USED IN REMARKS
   TC - TEMPERATURES IN CELSIUS
  WCI - WIND CHILL INDEX
   HX - HEAT INDEX
  VSB - VISIBILITY
$$



USA.gov is the U.S. government's official web portal to all federal, state and local government web resources and services.